Regional Weather Roundup
Issued by NWS

Home | Current Version | Previous Version | Graphics & Text | Print | Product List | Glossary Off
Versions: 1 2 3 4 5 6 7 8 9 10 11 12 13 14 15 16 17 18 19 20 21 22 23 24 25 26 27 28 29 30 31 32 33 34 35 36 37 38 39 40 41 42 43 44 45 46 47 48 49 50

000
ASUS43 KDTX 021910
RWRMI
MICHIGAN HOURLY REGIONAL WEATHER ROUNDUP
NATIONAL WEATHER SERVICE DETROIT/PONTIAC MI
200 PM EST FRI DEC 02 2016

NOTE: "FAIR" INDICATES FEW OR NO CLOUDS BELOW 12,000 FEET WITH NO
SIGNIFICANT WEATHER AND/OR OBSTRUCTION TO VISIBILITY.

MIZ047>049-052>055-059>063-066>070-074>076-081>083-022000-
SOUTHEAST LOWER MICHIGAN

CITY           SKY/WX    TMP DP  RH WIND       PRES   REMARKS
ADRIAN         CLOUDY    39  32  76 NW13G18   30.09R WCI  31
ALMA           CLOUDY    38  29  70 W12G20    30.08S WCI  30
ANN ARBOR      CLOUDY    40  29  64 W15G23    30.06S WCI  32
BAD AXE        CLOUDY    37  30  74 W13G21    29.99S WCI  29
CARO           CLOUDY    38  30  72 W16G22    30.02R WCI  29
DETROIT CITY   CLOUDY    40  27  59 NW17G26   30.05R WCI  31
DETROIT        CLOUDY    41  28  60 NW16G22   30.06R
FLINT          CLOUDY    37  28  70 W18G24    30.07R WCI  27
GROSSE ILE     CLOUDY    40  28  63 NW15G23   30.05R WCI  32
HILLSDALE      CLOUDY    36  28  75 NW17      30.07R WCI  25
HOWELL         CLOUDY    37  28  70 NW12G18   30.07R WCI  29

CITY           SKY/WX    TMP DP  RH WIND       PRES   REMARKS
JACKSON        CLOUDY    36  29  75 NW15      30.09R WCI  27
LAMBERTVILLE   CLOUDY    40  34  79 W9G17     30.09R WCI  35
LANSING        CLOUDY    37  25  61 NW16G22   30.10R WCI  28
LAPEER         NOT AVBL
MASON          CLOUDY    36  29  74 NW14      30.08S WCI  27
MONROE         CLOUDY    40  33  74 W13       30.06S WCI  33
MT. CLEMENS    PTSUNNY   39  29  67 NW17G28   30.02R WCI  30
PONTIAC        CLOUDY    37  26  64 W18       30.04R WCI  27
PORT HOPE        N/A     39  30  70 W12G25    29.95R WCI  32
PORT HURON     CLOUDY    39  28  65 W14G24    30.01S WCI  31
TRI CITIES     CLOUDY    39  29  67 W14       30.06R WCI  31
MIDLAND        CLOUDY    39  28  63 W15G21    30.04S WCI  31
TROY           CLOUDY    40  24  53 W16G22    30.06R WCI  31
SAGINAW HB     CLOUDY    39  28  65 W15       30.04S WCI  31
$$
MIZ043>046-050>051-056>058-064>065-071>073-077>080-022000-
SOUTHWEST LOWER MICHIGAN

CITY           SKY/WX    TMP DP  RH WIND       PRES   REMARKS
BATTLE CREEK   CLOUDY    37  30  75 W8        30.11R WCI  31
BENTON HARBOR  CLOUDY    38  27  64 NW9       30.16R WCI  31
BIG RAPIDS     CLOUDY    37  28  70 W9        30.08S WCI  30
COLDWATER      CLOUDY    38  28  65 NW15G21   30.11R WCI  30
FREMONT        CLOUDY    36  24  64 NW9       30.12R WCI  29
HOLLAND        CLOUDY    38  28  67 W9        30.13R WCI  31
GRAND RAPIDS   CLOUDY    37  25  61 NW13      30.12R WCI  29
IONIA          CLOUDY    36  26  65 NW9G17    30.09S WCI  29
KALAMAZOO      CLOUDY    39  27  62 NW13      30.12R WCI  31
LUDINGTON      CLOUDY    36  30  79 NW9       30.12R WCI  29
MARSHALL       CLOUDY    37  30  76 NW8       30.10R WCI  30
MOUNT PLEASANT CLOUDY    38  29  70 W14       30.06S WCI  30
MUSKEGON       CLOUDY    38  27  64 NW13      30.13S WCI  30
SOUTH HAVEN    CLOUDY    39  30  70 NW9       30.15R WCI  33
$$
MIZ016>042-022000-
NORTHERN LOWER MICHIGAN

CITY           SKY/WX    TMP DP  RH WIND       PRES   REMARKS
ALPENA         LGT RAIN  38  35  89 NW10G18   29.96R WCI  31
BEAVER ISLAND  CLOUDY    39  34  81 NW13G20   30.04R WCI  32
BELLAIRE       FLURRIES  37  34  90 W6        30.06R WCI  32
CADILLAC       CLOUDY    35  31  87 W10G16    30.05R WCI  27
CHARLEVOIX     DRIZZLE   38  36  90 NW15      30.07R WCI  30
FRANKFORT      LGT RAIN  36  33  88 NW10      30.10R WCI  28
GAYLORD        LGT SNOW  35  33  92 W10       29.99R FOG     WCI  27
GRAYLING       CLOUDY    36  34  92 W9G16     30.02R FOG     WCI  29
HARBOR SPRINGS CLOUDY    38  34  82 W8        30.01R WCI  33
HOUGHTON LAKE  CLOUDY    36  30  79 W13G20    30.03R WCI  27
MANISTEE       LGT RAIN  36  32  85 W13       30.11R WCI  27
OSCODA         CLOUDY    42  31  65 NW16G25   29.96R
PELLSTON       CLOUDY    40  33  76 NW18G25   30.01R WCI  31
ROGERS CITY    CLOUDY    38  35  86 W10G18    29.97R WCI  32
TRAVERSE CITY  LGT RAIN  38  32  79 W13       30.07R WCI  30
$$
MIZ007>008-015-022000-
EASTERN UPPER MICHIGAN

CITY           SKY/WX    TMP DP  RH WIND       PRES   REMARKS
KINROSS        MIX PCPN  37  35  92 NW13      29.97R WCI  29
MACKINAC ISLAN CLOUDY    37  34  90 NW13      29.99R WCI  28
NEWBERRY       CLOUDY    36  35  96 NW10G17   30.01R FOG     WCI  28
S. S. MARIE    CLOUDY    38  33  82 NW14G20   29.96R WCI  30
MUNISING         N/A     37  34  89 N13       30.07R WCI  29
$$
MIZ004>006-011>014-085-022000-
CENTRAL UPPER MICHIGAN

CITY           SKY/WX    TMP DP  RH WIND       PRES   REMARKS
MANISTIQUE     CLOUDY    37  34  87 NW12G20   30.05R WCI  30
ESCANABA       CLOUDY    37  28  70 NW12      30.10R WCI  29
MENOMINEE      CLOUDY    36  27  69 NW5       30.14R WCI  32
SAWYER-GWINN   CLOUDY    34  28  80 NW14      30.07R WCI  24
$$
MIZ001>003-009>011-084-022000-
WESTERN UPPER MICHIGAN

CITY           SKY/WX    TMP DP  RH WIND       PRES   REMARKS
IRON MOUNTAIN  CLOUDY    34  26  72 NW9       30.09R WCI  27
HOUGHTON       CLOUDY    32  27  81 NW10      30.09S WCI  24
COPPER HARBOR    N/A     36  31  82 N15       30.09R WCI  27
IRONWOOD       CLOUDY    29  27  92 W12       30.16R FOG     WCI  19
$$

ABBREVIATIONS USED IN REMARKS
   TC - TEMPERATURE IN CELSIUS
  WCI - WIND CHILL INDEX
   HX - HEAT INDEX
  VSB - VISIBILITY




USA.gov is the U.S. government's official web portal to all federal, state and local government web resources and services.